INMARSAT 5-F1

Last updated on Sun Apr 27 2025 00:02:40 GMT+0000 (Coordinated Universal Time)

1 39476U 13073A 25116.47114826 .00000031 00000+0 00000+0 0 9993 2 39476 0.0077 314.9722 0000262 307.2779 184.6810 1.00269231 41757
UTC large
Height (km)
Speed (km/s)
/
Latitude / Longitude
Inclination (degrees)
Orbital Period (minutes)
Azimuth
Elevation
Range (km)
Doppler Factor

Next 0 passes for location: London (51.5072 / 0.1276)

Sorry there are no passes over London.